Weather History for Glens Falls, NY

Change the Weather History Date:

Wednesday, April 10, 2013

  Actual Average Record
Temperature  
Mean Temperature 49 °F 42 °F  
Max Temperature 54 °F 54 °F 71 °F (1955)
Min Temperature 43 °F 31 °F 15 °F (1985)
Degree Days  
Heating Degree Days 16 23  
Month to date heating degree days 239 246  
Since 1 July heating degree days 6326 6909  
Cooling Degree Days 0 0  
Month to date cooling degree days 0 0  
Year to date cooling degree days 0 0  
Moisture  
Dew Point 44 °F    
Average Humidity 86    
Maximum Humidity 100    
Minimum Humidity 71    
Precipitation  
Precipitation 0.49 in 0.10 in 1.17 in (1983)
Month to date precipitation 0.69 0.97  
Year to date precipitation 6.10 8.85  
Sea Level Pressure  
Sea Level Pressure 29.94 in    
Wind  
Wind Speed 6 mph (North)    
Max Wind Speed 14 mph    
Max Gust Speed 18 mph    
Visibility 7 miles    
Events Rain    
T = Trace of Precipitation, MM = Missing Value Source: NWS Daily Summary

Daily Weather History Graph

Daily Weather History Graph

Search for Another Location

Airport:

Trip Planner

Search our weather history database for the weather conditions in past years. The results will help you decide how hot, cold, wet, or windy it might be!

Date:

Astronomy

Apr. 10, 2013 Rise Set
Actual Time 6:20 AM EDT 7:31 PM EDT
Civil Twilight 5:50 AM EDT 8:01 PM EDT
Nautical Twilight 5:15 AM EDT 8:36 PM EDT
Astronomical Twilight 4:38 AM EDT 9:13 PM EDT
Moon 6:13 AM EDT (4/10) 8:06 PM EDT (4/10)
Length of Visible Light 14h 10m
Length of Day
13h 11m
New Moon, 0% of the Moon is Illuminated
Apr 10
New Moon
Apr 18
First Quarter
Apr 25
Full
May 2
Last Quarter
May 9
New

Hourly Weather History & Observations

Time (EDT) Temp. Windchill Dew Point Humidity Pressure Visibility Wind Dir Wind Speed Gust Speed Precip Events Conditions
12:53 AM 46.0 °F - 43.0 °F 89% 30.00 in 5.0 mi Calm Calm - 0.10 in Rain Light Rain
1:53 AM 45.0 °F 43.5 °F 43.0 °F 93% 29.96 in 4.0 mi East 3.5 mph - 0.16 in Rain Rain
2:16 AM 44.6 °F 43.1 °F 44.6 °F 100% 29.95 in 6.0 mi NNE 3.5 mph - 0.02 in Rain Light Rain
2:28 AM 44.6 °F 42.2 °F 44.6 °F 100% 29.95 in 6.0 mi North 4.6 mph - 0.03 in Rain Light Rain
2:36 AM 44.6 °F 43.1 °F 44.6 °F 100% 29.94 in 5.0 mi NNW 3.5 mph - 0.04 in Rain Light Rain
2:53 AM 45.0 °F 43.5 °F 43.0 °F 93% 29.96 in 4.0 mi NNW 3.5 mph - 0.06 in Rain Rain
3:01 AM 44.6 °F - 44.6 °F 100% 29.95 in 5.0 mi Calm Calm - 0.00 in Rain Light Rain
3:12 AM 46.4 °F - 44.6 °F 93% 29.95 in 4.0 mi Calm Calm - 0.01 in Rain Light Rain
3:53 AM 45.0 °F - 44.1 °F 97% 29.94 in 3.0 mi Calm Calm - 0.06 in Rain Light Rain
4:27 AM 44.6 °F 43.1 °F 44.6 °F 100% 29.93 in 4.0 mi North 3.5 mph - 0.02 in Rain Light Rain
4:36 AM 44.6 °F 42.2 °F 42.8 °F 93% 29.94 in 4.0 mi North 4.6 mph - 0.02 in Rain Light Rain
4:53 AM 45.0 °F - 44.1 °F 97% 29.93 in 3.0 mi Calm Calm - 0.03 in Rain Light Rain
5:07 AM 46.4 °F - 44.6 °F 93% 29.92 in 4.0 mi Calm Calm - 0.00 in Rain Light Rain
5:19 AM 46.4 °F - 44.6 °F 93% 29.92 in 7.0 mi Calm Calm - 0.00 in   Overcast
5:53 AM 46.0 °F - 43.0 °F 89% 29.94 in 10.0 mi Calm Calm - 0.01 in   Overcast
6:41 AM 44.6 °F 40.7 °F 42.8 °F 93% 29.94 in 10.0 mi North 6.9 mph - N/A   Overcast
6:53 AM 46.0 °F 42.5 °F 43.0 °F 89% 29.96 in 10.0 mi North 6.9 mph - N/A   Overcast
7:53 AM 46.0 °F 43.9 °F 44.1 °F 93% 29.98 in 9.0 mi North 4.6 mph - N/A   Overcast
8:53 AM 48.0 °F - 44.1 °F 86% 29.98 in 10.0 mi NNE 3.5 mph - N/A   Overcast
9:21 AM 48.2 °F - 44.6 °F 87% 29.97 in 10.0 mi NNE 4.6 mph - N/A   Overcast
9:35 AM 48.2 °F - 44.6 °F 87% 29.97 in 10.0 mi Calm Calm - N/A   Overcast
9:53 AM 50.0 °F - 45.0 °F 83% 29.99 in 10.0 mi NNW 4.6 mph - N/A   Overcast
10:23 AM 50.0 °F - 44.6 °F 82% 29.99 in 10.0 mi NNW 8.1 mph - N/A   Overcast
10:53 AM 50.0 °F - 44.1 °F 80% 30.00 in 10.0 mi NNW 6.9 mph - N/A   Overcast
11:53 AM 50.0 °F - 44.1 °F 80% 29.99 in 10.0 mi NE 6.9 mph - N/A   Overcast
12:53 PM 52.0 °F - 44.1 °F 74% 29.99 in 10.0 mi Variable 5.8 mph - N/A   Overcast
1:53 PM 51.1 °F - 44.1 °F 77% 30.02 in 5.0 mi ENE 6.9 mph - 0.00 in Rain Light Rain
2:14 PM 51.8 °F - 44.6 °F 76% 29.96 in 10.0 mi East 8.1 mph - 0.01 in   Overcast
2:53 PM 53.1 °F - 46.0 °F 77% 29.95 in 10.0 mi NNE 8.1 mph - 0.01 in   Mostly Cloudy
3:19 PM 53.6 °F - 44.6 °F 72% 29.92 in 10.0 mi NE 5.8 mph - N/A   Overcast
3:53 PM 53.1 °F - 45.0 °F 74% 29.94 in 10.0 mi Calm Calm - N/A   Overcast
4:53 PM 53.1 °F - 44.1 °F 71% 29.90 in 10.0 mi North 6.9 mph - N/A   Overcast
5:53 PM 48.9 °F - 43.0 °F 80% 29.91 in 10.0 mi North 6.9 mph - N/A   Overcast
6:29 PM 46.4 °F 44.3 °F 44.6 °F 93% 29.89 in 2.5 mi NNE 4.6 mph - 0.05 in Rain Rain
6:47 PM 46.4 °F 41.5 °F 44.6 °F 93% 29.90 in 3.0 mi NNW 10.4 mph - 0.10 in Rain Light Rain
6:53 PM 46.0 °F 40.2 °F 44.1 °F 93% 29.93 in 6.0 mi NNW 12.7 mph - 0.10 in Rain Light Rain
7:18 PM 44.6 °F 43.1 °F 42.8 °F 93% 29.88 in 2.5 mi NNE 3.5 mph - 0.03 in Rain Rain
7:25 PM 44.6 °F - 42.8 °F 93% 29.88 in 5.0 mi Calm Calm - 0.04 in Rain Light Rain
7:34 PM 46.4 °F 43.5 °F 44.6 °F 93% 29.89 in 5.0 mi East 5.8 mph - 0.05 in Rain Light Rain
7:53 PM 46.0 °F 43.1 °F 43.0 °F 89% 29.93 in 9.0 mi NE 5.8 mph - 0.05 in Rain Light Rain
8:04 PM 46.4 °F 42.9 °F 42.8 °F 87% 29.90 in 10.0 mi North 6.9 mph - 0.00 in   Overcast
8:13 PM 44.6 °F 40.2 °F 42.8 °F 93% 29.90 in 7.0 mi North 8.1 mph - 0.00 in   Overcast
8:26 PM 44.6 °F 40.2 °F 42.8 °F 93% 29.90 in 9.0 mi North 8.1 mph - 0.00 in   Overcast
8:53 PM 44.1 °F 39.0 °F 42.1 °F 93% 29.92 in 10.0 mi North 9.2 mph - 0.00 in   Overcast
9:41 PM 44.6 °F 39.2 °F 41.0 °F 87% 29.91 in 5.0 mi North 10.4 mph 18.4 mph 0.00 in   Overcast
9:53 PM 44.1 °F 38.6 °F 41.0 °F 89% 29.92 in 7.0 mi North 10.4 mph - 0.00 in   Overcast
10:53 PM 44.1 °F 39.0 °F 41.0 °F 89% 29.95 in 4.0 mi NNW 9.2 mph - 0.01 in Rain Light Rain
11:22 PM 42.8 °F 39.3 °F 41.0 °F 93% 29.92 in 4.0 mi North 5.8 mph - 0.01 in Rain Light Rain
11:53 PM 43.0 °F 41.3 °F 41.0 °F 93% 29.94 in 9.0 mi North 3.5 mph - 0.01 in   Overcast